Chesapeake, VA

5:42 AM EDT on August 26, 2016 (GMT -0400)
Chesapeake Regional

Weather History for KCPK - December, 2013

Change the Weather History Date:

Wednesday, December 4, 2013

  Actual Average (KORF) Record (KORF)
Temperature  
Mean Temperature 56 °F 47 °F  
Max Temperature 64 °F 55 °F 80 °F (1978)
Min Temperature 48 °F 39 °F 22 °F (1966)
Degree Days  
Heating Degree Days 9 18  
Month to date heating degree days 70  
Since 1 July heating degree days 600  
Cooling Degree Days 0 0  
Month to date cooling degree days 0  
Year to date cooling degree days 1628  
Growing Degree Days 6 (Base 50)    
Moisture  
Dew Point 50 °F    
Average Humidity 84    
Maximum Humidity 100    
Minimum Humidity 62    
Precipitation  
Precipitation 0.03 in 0.11 in 1.94 in (1927)
Month to date precipitation 0.43  
Year to date precipitation 43.70  
Snow  
Snow 0.00 in 0.00 in 1.30 in (1907)
Month to date snowfall 0.0  
Since 1 July snowfall T  
Snow Depth -    
Sea Level Pressure  
Sea Level Pressure 30.07 in    
Wind  
Wind Speed 1 mph (SSE)    
Max Wind Speed 7 mph    
Max Gust Speed -    
Visibility 10 miles    
Events Rain    
T = Trace of Precipitation, MM = Missing Value Source: NWS Daily Summary

Daily Weather History Graph

Daily Weather History Graph

Search for Another Location

Airport or City:

Trip Planner

Search our weather history database for the weather conditions in past years. The results will help you decide how hot, cold, wet, or windy it might be!

Date:

Astronomy

Dec. 04, 2013 Rise Set
Actual Time 7:01 AM EST 4:49 PM EST
Civil Twilight 6:33 AM EST 5:17 PM EST
Nautical Twilight 6:01 AM EST 5:49 PM EST
Astronomical Twilight 5:29 AM EST 6:21 PM EST
Moon 8:28 AM EST (12/4) 6:55 PM EST (12/4)
Length of Visible Light 10h 44m
Length of Day
9h 47m
Waxing Crescent, 4% of the Moon is Illuminated
Dec 4
Waxing Crescent
Dec 9
First Quarter
Dec 17
Full
Dec 25
Last Quarter
Jan 1
New

Hourly Weather History & Observations

Time (EST) Temp. Dew Point Humidity Pressure Visibility Wind Dir Wind Speed Gust Speed Precip Events Conditions
12:00 AM 48.2 °F 39.2 °F 71% 30.04 in 10.0 mi South 3.5 mph - N/A   Overcast
12:15 AM 48.2 °F 39.2 °F 71% 30.04 in 10.0 mi Calm Calm - N/A   Overcast
12:20 AM 50.0 °F 39.2 °F 66% 30.04 in 10.0 mi Calm Calm - N/A   Overcast
12:35 AM 50.0 °F 39.2 °F 66% 30.05 in 10.0 mi Calm Calm - N/A   Overcast
12:40 AM 50.0 °F 39.2 °F 66% 30.05 in 10.0 mi Calm Calm - N/A   Overcast
12:55 AM 50.0 °F 39.2 °F 66% 30.05 in 10.0 mi Calm Calm - N/A   Overcast
1:15 AM 50.0 °F 39.2 °F 66% 30.05 in 10.0 mi Calm Calm - N/A   Overcast
1:35 AM 50.0 °F 39.2 °F 66% 30.04 in 10.0 mi Calm Calm - N/A   Overcast
1:40 AM 50.0 °F 39.2 °F 66% 30.04 in 10.0 mi Calm Calm - N/A   Overcast
1:55 AM 51.8 °F 39.2 °F 62% 30.04 in 10.0 mi Calm Calm - N/A   Overcast
2:15 AM 51.8 °F 39.2 °F 62% 30.05 in 10.0 mi Calm Calm - N/A   Overcast
2:20 AM 51.8 °F 39.2 °F 62% 30.05 in 10.0 mi Calm Calm - N/A   Overcast
2:35 AM 51.8 °F 39.2 °F 62% 30.05 in 10.0 mi Calm Calm - N/A   Overcast
2:55 AM 48.2 °F 42.8 °F 82% 30.05 in 10.0 mi Calm Calm - N/A Rain Light Rain
3:15 AM 48.2 °F 42.8 °F 82% 30.05 in 10.0 mi Calm Calm - N/A Rain Light Rain
3:20 AM 48.2 °F 42.8 °F 82% 30.06 in 10.0 mi Calm Calm - N/A Rain Light Rain
3:35 AM 48.2 °F 42.8 °F 82% 30.06 in 10.0 mi Calm Calm - N/A   Overcast
3:40 AM 48.2 °F 42.8 °F 82% 30.06 in 10.0 mi Calm Calm - N/A   Overcast
3:55 AM 48.2 °F 44.6 °F 87% 30.05 in 10.0 mi Calm Calm - N/A Rain Rain
4:15 AM 48.2 °F 42.8 °F 82% 30.05 in 10.0 mi Calm Calm - N/A   Drizzle
4:20 AM 48.2 °F 42.8 °F 82% 30.06 in 10.0 mi Calm Calm - N/A   Light Drizzle
4:35 AM 48.2 °F 46.4 °F 93% 30.06 in 10.0 mi Calm Calm - 0.01 in Rain Light Rain
4:41 AM 48.2 °F 46.4 °F 93% 30.06 in 10.0 mi Calm Calm - 0.01 in Rain Light Rain
4:55 AM 48.2 °F 44.6 °F 87% 30.06 in 10.0 mi Calm Calm - 0.01 in Rain Light Rain
5:15 AM 48.2 °F 44.6 °F 87% 30.06 in 10.0 mi Calm Calm - 0.01 in   Overcast
5:35 AM 48.2 °F 44.6 °F 87% 30.06 in 10.0 mi Calm Calm - 0.01 in   Overcast
5:41 AM 48.2 °F 44.6 °F 87% 30.06 in 10.0 mi Calm Calm - 0.01 in   Drizzle
5:55 AM 48.2 °F 46.4 °F 93% 30.07 in 10.0 mi Calm Calm - N/A   Overcast
6:15 AM 48.2 °F 46.4 °F 93% 30.07 in 10.0 mi Calm Calm - N/A   Drizzle
6:35 AM 48.2 °F 44.6 °F 87% 30.07 in 7.0 mi East 3.5 mph - 0.01 in Rain Light Rain
6:55 AM 48.2 °F 46.4 °F 93% 30.08 in 10.0 mi East 3.5 mph - N/A   Overcast
7:00 AM 48.2 °F 46.4 °F 93% 30.08 in 10.0 mi East 3.5 mph - N/A   Overcast
7:15 AM 48.2 °F 46.4 °F 93% 30.08 in 10.0 mi Calm Calm - N/A   Overcast
7:35 AM 48.2 °F 46.4 °F 93% 30.09 in 10.0 mi Calm Calm - N/A   Overcast
7:40 AM 48.2 °F 46.4 °F 93% 30.09 in 10.0 mi Calm Calm - N/A   Overcast
7:55 AM 48.2 °F 46.4 °F 93% 30.09 in 10.0 mi Calm Calm - N/A   Overcast
8:00 AM 48.2 °F 46.4 °F 93% 30.09 in 10.0 mi Calm Calm - N/A   Overcast
8:15 AM 50.0 °F 46.4 °F 87% 30.09 in 10.0 mi East 3.5 mph - N/A   Overcast
8:35 AM 50.0 °F 46.4 °F 87% 30.09 in 10.0 mi Calm Calm - N/A   Overcast
8:55 AM 51.8 °F 48.2 °F 88% 30.10 in 10.0 mi Calm Calm - N/A   Overcast
9:00 AM 51.8 °F 48.2 °F 88% 30.10 in 10.0 mi Calm Calm - N/A   Overcast
9:15 AM 51.8 °F 48.2 °F 88% 30.11 in 10.0 mi Calm Calm - N/A   Overcast
9:35 AM 53.6 °F 50.0 °F 88% 30.12 in 10.0 mi Calm Calm - N/A   Overcast
9:55 AM 55.4 °F 51.8 °F 88% 30.12 in 10.0 mi Calm Calm - N/A   Overcast
10:15 AM 55.4 °F 51.8 °F 88% 30.12 in 10.0 mi Calm Calm - N/A   Overcast
10:35 AM 59.0 °F 51.8 °F 77% 30.11 in 10.0 mi ESE 4.6 mph - N/A   Overcast
10:55 AM 60.8 °F 53.6 °F 77% 30.11 in 10.0 mi South 3.5 mph - N/A   Scattered Clouds
11:15 AM 60.8 °F 53.6 °F 77% 30.09 in 10.0 mi SSE 6.9 mph - N/A   Scattered Clouds
11:35 AM 62.6 °F 53.6 °F 72% 30.09 in 10.0 mi SSE 5.8 mph - N/A   Mostly Cloudy
11:55 AM 60.8 °F 53.6 °F 77% 30.08 in 10.0 mi SSE 4.6 mph - N/A   Overcast
12:15 PM 60.8 °F 53.6 °F 77% 30.08 in 10.0 mi South 4.6 mph - N/A   Overcast
12:35 PM 60.8 °F 55.4 °F 82% 30.07 in 10.0 mi Calm Calm - N/A   Overcast
12:55 PM 60.8 °F 55.4 °F 82% 30.07 in 10.0 mi South 4.6 mph - N/A   Overcast
1:15 PM 60.8 °F 55.4 °F 82% 30.06 in 10.0 mi South 3.5 mph - N/A   Overcast
1:35 PM 60.8 °F 55.4 °F 82% 30.05 in 10.0 mi SSE 3.5 mph - N/A   Overcast
1:55 PM 62.6 °F 57.2 °F 82% 30.05 in 10.0 mi Calm Calm - N/A   Overcast
2:15 PM 62.6 °F 57.2 °F 82% 30.05 in 10.0 mi SE 3.5 mph - N/A   Overcast
2:35 PM 64.4 °F 57.2 °F 77% 30.04 in 10.0 mi South 3.5 mph - N/A   Mostly Cloudy
2:55 PM 64.4 °F 57.2 °F 77% 30.04 in 10.0 mi South 4.6 mph - N/A   Mostly Cloudy
3:15 PM 62.6 °F 57.2 °F 82% 30.04 in 10.0 mi South 3.5 mph - N/A   Overcast
3:35 PM 62.6 °F 57.2 °F 82% 30.05 in 10.0 mi Calm Calm - N/A   Overcast
3:55 PM 62.6 °F 57.2 °F 82% 30.04 in 10.0 mi Calm Calm - N/A   Overcast
4:15 PM 62.6 °F 57.2 °F 82% 30.05 in 10.0 mi SSE 4.6 mph - N/A   Overcast
4:35 PM 60.8 °F 57.2 °F 88% 30.05 in 10.0 mi Calm Calm - N/A   Overcast
4:55 PM 60.8 °F 57.2 °F 88% 30.06 in 10.0 mi Calm Calm - N/A   Overcast
5:15 PM 60.8 °F 57.2 °F 88% 30.06 in 10.0 mi Calm Calm - N/A   Overcast
5:35 PM 60.8 °F 57.2 °F 88% 30.06 in 10.0 mi Calm Calm - N/A   Overcast
5:55 PM 60.8 °F 57.2 °F 88% 30.06 in 10.0 mi Calm Calm - N/A   Overcast
6:15 PM 60.8 °F 57.2 °F 88% 30.07 in 10.0 mi Calm Calm - N/A   Overcast
6:35 PM 59.0 °F 55.4 °F 88% 30.07 in 10.0 mi Calm Calm - N/A   Overcast
6:55 PM 57.2 °F 55.4 °F 94% 30.08 in 7.0 mi Calm Calm - N/A   Overcast
7:15 PM 57.2 °F 55.4 °F 94% 30.08 in 10.0 mi Calm Calm - N/A   Overcast
7:35 PM 59.0 °F 57.2 °F 94% 30.08 in 10.0 mi Calm Calm - N/A   Overcast
7:55 PM 59.0 °F 57.2 °F 94% 30.08 in 10.0 mi Calm Calm - N/A   Overcast
8:15 PM 57.2 °F 55.4 °F 94% 30.09 in 7.0 mi Calm Calm - N/A   Overcast
8:35 PM 57.2 °F 55.4 °F 94% 30.09 in 10.0 mi Calm Calm - N/A   Overcast
8:55 PM 57.2 °F 55.4 °F 94% 30.09 in 10.0 mi Calm Calm - N/A   Overcast
9:15 PM 57.2 °F 55.4 °F 94% 30.10 in 7.0 mi Calm Calm - N/A   Overcast
9:35 PM 57.2 °F 55.4 °F 94% 30.09 in 7.0 mi Calm Calm - N/A   Overcast
9:55 PM 59.0 °F 57.2 °F 94% 30.10 in 7.0 mi Calm Calm - N/A   Overcast
10:15 PM 57.2 °F 57.2 °F 100% 30.10 in 7.0 mi Calm Calm - N/A   Overcast
10:35 PM 59.0 °F 57.2 °F 94% 30.11 in 7.0 mi Calm Calm - N/A   Overcast
10:55 PM 57.2 °F 57.2 °F 100% 30.11 in 7.0 mi Calm Calm - N/A   Overcast
11:15 PM 57.2 °F 57.2 °F 100% 30.11 in 5.0 mi Calm Calm - N/A   Overcast
11:35 PM 57.2 °F 55.4 °F 94% 30.11 in 5.0 mi Calm Calm - N/A   Overcast
11:55 PM 57.2 °F 57.2 °F 100% 30.11 in 4.0 mi Calm Calm - N/A   Overcast